Weather History for Minneapolis Flying Cloud, MN

Change the Weather History Date:

Monday, April 9, 2012

  Actual Average Record
Temperature  
Mean Temperature 42 °F -  
Max Temperature 48 °F 52 °F 77 °F (2005)
Min Temperature 34 °F 34 °F 19 °F (2007)
Degree Days  
Heating Degree Days 23    
Moisture  
Dew Point 20 °F    
Average Humidity 42    
Maximum Humidity 54    
Minimum Humidity 33    
Precipitation  
Precipitation 0.00 in - - ()
Sea Level Pressure  
Sea Level Pressure 30.12 in    
Wind  
Wind Speed 11 mph (NW)    
Max Wind Speed 23 mph    
Max Gust Speed 36 mph    
Visibility 10 miles    
Events      
Averages and records for this station are not official NWS values.
T = Trace of Precipitation, MM = Missing Value Source: NWS Daily Summary

Daily Weather History Graph

Daily Weather History Graph

Search for Another Location

Airport:

Trip Planner

Search our weather history database for the weather conditions in past years. The results will help you decide how hot, cold, wet, or windy it might be!

Date:

Astronomy

Apr. 09, 2012 Rise Set
Actual Time 6:39 AM CDT 7:52 PM CDT
Civil Twilight 6:09 AM CDT 8:22 PM CDT
Nautical Twilight 5:32 AM CDT 8:58 PM CDT
Astronomical Twilight 4:54 AM CDT 9:37 PM CDT
Moon 11:58 PM CDT (4/9) 8:17 AM CDT (4/9)
Length of Visible Light 14h 13m
Length of Day
13h 13m
Waning Gibbous, 88% of the Moon is Illuminated
Apr 9
Waning Gibbous
Apr 13
Last Quarter
Apr 21
New
Apr 29
First Quarter
May 5
Full

Hourly Weather History & Observations

Time (CDT) Temp. Windchill Dew Point Humidity Pressure Visibility Wind Dir Wind Speed Gust Speed Precip Events Conditions
12:53 AM 45.0 °F 41.8 °F 23.0 °F 42% 30.08 in 10.0 mi WSW 5.8 mph - N/A   Clear
1:53 AM 42.1 °F 38.4 °F 23.0 °F 47% 30.07 in 10.0 mi WSW 5.8 mph - N/A   Clear
2:53 AM 46.0 °F 40.6 °F 23.0 °F 40% 30.08 in 10.0 mi NW 11.5 mph - N/A   Clear
3:53 AM 43.0 °F 38.8 °F 23.0 °F 45% 30.08 in 10.0 mi NNW 6.9 mph - N/A   Clear
4:53 AM 41.0 °F 39.0 °F 21.9 °F 47% 30.09 in 10.0 mi WSW 3.5 mph - N/A   Clear
5:53 AM 41.0 °F 35.2 °F 21.0 °F 45% 30.09 in 10.0 mi WNW 9.2 mph - N/A   Clear
6:53 AM 39.9 °F 34.5 °F 19.0 °F 43% 30.11 in 10.0 mi West 8.1 mph - N/A   Clear
7:53 AM 39.9 °F 31.1 °F 19.9 °F 45% 30.13 in 10.0 mi NW 17.3 mph 21.9 mph N/A   Clear
8:53 AM 42.1 °F 33.9 °F 21.0 °F 43% 30.12 in 10.0 mi WNW 17.3 mph 26.5 mph N/A   Clear
9:53 AM 42.1 °F 32.6 °F 21.0 °F 43% 30.13 in 10.0 mi NW 23.0 mph 34.5 mph N/A   Clear
10:53 AM 42.1 °F 34.2 °F 21.0 °F 43% 30.14 in 10.0 mi WNW 16.1 mph 23.0 mph N/A   Scattered Clouds
11:53 AM 45.0 °F 37.6 °F 21.0 °F 39% 30.14 in 10.0 mi West 17.3 mph 25.3 mph N/A   Scattered Clouds
12:53 PM 45.0 °F 38.5 °F 19.9 °F 37% 30.14 in 10.0 mi WNW 13.8 mph 31.1 mph N/A   Scattered Clouds
1:53 PM 46.9 °F - 21.0 °F 36% 30.13 in 10.0 mi WNW 15.0 mph 25.3 mph N/A   Scattered Clouds
2:53 PM 46.0 °F 39.3 °F 19.9 °F 35% 30.12 in 10.0 mi NW 16.1 mph 25.3 mph N/A   Scattered Clouds
3:53 PM 48.0 °F - 19.9 °F 33% 30.11 in 10.0 mi NW 21.9 mph 32.2 mph N/A   Scattered Clouds
4:53 PM 46.0 °F 38.5 °F 19.9 °F 35% 30.12 in 10.0 mi WNW 19.6 mph 35.7 mph N/A   Scattered Clouds
5:53 PM 45.0 °F 37.9 °F 19.0 °F 36% 30.12 in 10.0 mi NNW 16.1 mph 25.3 mph N/A   Scattered Clouds
6:53 PM 42.1 °F 34.9 °F 18.0 °F 38% 30.13 in 10.0 mi NW 13.8 mph 24.2 mph N/A   Partly Cloudy
7:53 PM 39.9 °F 32.9 °F 18.0 °F 41% 30.14 in 10.0 mi NNW 11.5 mph - N/A   Clear
8:53 PM 37.9 °F 34.4 °F 19.0 °F 47% 30.16 in 10.0 mi North 4.6 mph - N/A   Clear
9:53 PM 37.0 °F 31.6 °F 18.0 °F 46% 30.17 in 10.0 mi NNW 6.9 mph - N/A   Clear
10:53 PM 36.0 °F 31.1 °F 19.0 °F 50% 30.18 in 10.0 mi North 5.8 mph - N/A   Clear
11:53 PM 34.0 °F 29.8 °F 19.0 °F 54% 30.19 in 10.0 mi North 4.6 mph - N/A   Clear